Wind_Speed
15 13 15 16 15 14 12 11 11 10 9 9 8 8 7 6 7 6 7 7 6 5 4 4 5 5 5 5 5 6 6 6 7 8 9 9 10 11 11 11 11 12 13
13 14 14 16 15 14 12 11 10 9 8 8 7 6 6 6 7 5 5 6 5 5 3 4 5 4 4 3 3 5 5 6 6 7 9 8 9 10 10 11 11 11 12
14 15 15 16 16 14 13 12 11 10 8 7 6 5 5 5 6 5 5 6 4 5 5 5 4 3 2 3 5 4 4 6 6 6 7 8 9 9 10 10 10 10 11
14 14 14 15 14 13 12 11 10 9 8 6 5 5 4 4 4 4 4 5 3 3 4 4 4 2 1 3 6 5 5 6 6 5 6 8 8 9 8 8 9 10 10
15 13 13 14 14 13 11 11 10 9 7 6 4 4 3 3 3 2 3 3 2 2 4 4 4 3 2 3 7 7 6 6 6 5 5 7 8 9 8 9 8 9 9
16 15 14 14 14 12 11 10 9 8 7 6 4 3 3 2 2 2 2 2 2 2 2 4 4 3 3 4 7 7 6 6 6 6 5 6 7 9 9 9 8 8 9
16 14 14 14 13 12 11 9 8 8 7 6 5 3 2 2 2 2 2 3 3 2 2 4 4 2 3 4 7 9 7 6 6 5 5 5 6 7 8 9 8 7 8
14 13 14 14 14 11 10 9 7 7 6 6 5 4 3 1 1 1 2 3 3 2 3 4 5 4 4 5 8 9 8 6 5 4 6 5 5 5 6 8 8 7 7
15 13 13 13 12 11 9 8 7 6 4 4 3 3 2 1 1 2 3 3 4 4 3 3 5 4 4 6 8 10 9 7 7 5 4 5 5 4 5 6 7 7 7
15 14 13 13 12 11 10 8 7 6 4 3 1 0 1 3 3 3 3 5 5 6 5 5 6 5 4 5 7 9 10 9 7 8 7 5 5 5 4 5 6 6 6
15 13 14 13 13 11 10 9 8 7 6 4 3 3 3 4 5 6 4 5 7 8 7 7 7 6 5 8 6 9 11 11 9 10 8 7 6 6 6 5 6 6 6
8 12 13 12 13 13 12 11 10 9 8 7 7 7 8 7 7 7 6 5 7 9 9 8 8 7 7 6 4 7 11 13 13 12 10 10 9 8 7 7 6 6 6
7 8 10 11 12 13 13 13 13 12 11 11 11 11 11 11 10 10 10 9 6 6 9 10 10 9 8 7 7 6 11 15 16 15 13 11 12 10 9 8 7 6 7
7 8 10 11 11 12 13 14 14 14 14 13 14 13 12 14 14 15 16 14 11 8 7 9 11 11 11 10 9 9 9 13 16 17 16 15 13 14 14 12 12 11 9
8 8 7 7 9 11 13 14 14 14 14 14 14 15 15 18 21 18 28 21 14 13 12 12 12 13 13 12 12 13 9 13 19 16 19 18 16 16 17 15 15 14 14
7 7 6 6 6 7 10 10 11 12 13 14 15 16 16 17 19 25 29 27 18 17 19 18 16 14 15 15 15 14 14 13 15 19 20 20 18 17 19 17 17 14 17
7 7 6 6 3 3 4 4 6 7 10 12 14 14 15 14 18 17 15 15 15 21 20 21 21 17 18 18 17 17 16 16 18 18 20 21 21 20 21 18 16 17 16
7 6 5 4 3 2 2 3 3 3 4 6 9 12 13 14 13 15 15 17 19 21 24 23 24 24 23 20 21 19 18 17 16 15 18 20 21 21 22 23 19 20 19
11 9 8 5 1 2 4 4 3 4 6 9 12 15 16 18 19 18 18 18 20 23 25 26 27 25 26 23 22 21 19 17 16 17 17 19 18 19 20 23 21 21 18
14 12 8 6 5 8 8 7 9 10 11 12 15 18 20 22 23 23 22 23 24 24 25 24 23 22 22 25 23 22 21 18 16 19 19 19 17 19 19 18 17 19 16
19 17 11 10 15 21 15 12 13 12 12 16 18 22 24 25 26 27 28 27 27 27 27 27 25 23 24 25 26 24 23 23 20 23 21 17 21 17 17 16 13 14 15
19 22 19 17 17 16 18 16 12 12 16 19 22 25 24 25 26 28 29 30 30 29 27 28 28 25 23 25 26 27 24 24 24 24 21 18 16 15 15 16 17 14 14
15 20 14 15 9 7 9 10 11 13 15 17 21 20 20 22 21 21 21 26 29 32 32 30 28 28 25 25 25 28 26 25 24 24 22 18 16 15 14 15 14 14 13
12 13 16 8 6 7 6 7 11 12 13 14 16 16 16 16 16 18 19 21 24 27 28 32 33 34 31 26 26 31 29 25 22 24 24 23 17 17 16 15 15 16 16
12 11 10 6 10 11 9 10 11 11 12 13 15 16 15 15 14 12 15 18 20 21 24 27 28 26 31 33 28 29 28 26 26 23 24 27 28 20 17 15 15 18 21
10 11 11 6 7 7 8 10 9 10 12 15 17 18 19 19 16 13 11 11 15 16 17 20 24 26 20 34 28 28 29 27 27 27 27 26 25 31 33 29 29 27 26
Wind_Direction
146 146 146 140 139 137 135 125 126 117 122 114 108 108 113 112 105 120 145 152 154 149 128 125 115 101 95 100 99 116 96 91 99 100 103 111 110 112 109 107 107 104 112
139 138 138 137 137 136 132 128 124 116 115 107 107 110 122 127 112 120 141 150 163 163 177 159 143 124 104 109 121 118 105 94 91 93 99 111 113 113 109 104 103 105 111
140 142 142 141 137 131 128 127 124 120 112 104 100 104 126 123 123 122 148 139 172 186 189 184 166 154 126 128 141 136 114 101 92 90 99 112 112 112 107 107 107 108 114
148 150 146 142 134 125 117 113 109 106 106 107 101 94 102 125 136 137 133 126 155 195 205 180 180 181 177 160 160 147 131 113 104 102 106 117 117 115 111 112 114 114 121
152 153 148 141 127 117 110 107 105 103 98 96 89 89 92 108 112 114 130 108 116 200 206 182 185 214 224 188 167 158 148 134 121 127 111 119 128 124 122 117 120 119 122
154 159 154 145 132 126 119 116 111 105 107 105 104 107 114 108 128 156 137 162 175 205 197 214 202 202 192 190 175 169 161 150 134 127 137 122 120 121 120 120 126 125 127
158 161 158 154 146 136 129 126 119 108 103 96 95 95 107 138 154 182 190 212 231 204 193 218 221 238 205 191 183 180 172 171 149 145 133 133 126 122 123 120 123 127 130
163 167 169 165 160 148 140 135 124 115 116 112 100 86 63 21 208 201 210 227 240 223 212 216 218 225 211 203 186 190 184 184 178 157 145 145 138 136 132 125 123 126 131
171 175 174 174 172 164 155 150 142 137 136 120 104 81 55 17 310 229 217 235 248 237 223 222 221 219 233 208 204 195 194 192 194 186 162 152 155 154 148 135 126 129 132
183 180 178 180 186 176 177 173 169 165 163 167 169 140 353 320 301 276 236 239 246 248 246 236 225 222 222 228 209 214 209 196 193 205 195 175 169 173 164 159 148 140 144
197 199 187 190 195 195 199 201 199 198 193 203 218 242 261 268 278 276 252 232 248 257 253 252 253 241 237 249 206 208 212 209 202 210 213 201 193 186 176 189 174 167 167
196 201 203 195 204 210 214 223 223 225 231 231 234 238 243 246 257 266 268 252 249 255 257 256 256 258 246 222 254 229 222 219 223 217 235 224 219 211 195 201 198 192 190
174 186 204 207 213 215 222 231 234 237 244 247 245 246 251 255 247 248 247 238 232 248 258 253 259 258 259 247 239 247 238 227 226 230 240 230 230 229 226 218 216 219 214
181 195 212 220 226 230 232 240 244 244 246 250 255 257 257 269 273 263 247 230 239 240 254 268 259 258 256 249 244 236 268 247 233 235 239 237 241 237 238 231 223 239 234
188 189 204 222 232 236 243 236 243 246 248 253 257 262 262 261 276 274 252 233 231 239 252 261 268 267 258 251 244 236 236 247 228 247 242 239 247 242 241 237 243 246 225
192 196 193 225 237 233 236 238 242 251 256 261 265 271 269 269 273 282 234 226 219 236 252 261 264 265 264 256 247 244 243 244 254 251 239 240 240 243 244 240 250 266 225
189 186 189 174 196 196 214 234 240 248 251 266 269 266 273 275 283 282 275 232 233 241 248 257 254 263 264 261 255 246 242 234 243 252 239 242 244 246 254 258 248 256 266
203 197 182 179 159 198 232 213 236 250 270 266 269 278 281 283 276 274 275 267 259 257 255 253 255 265 266 260 257 249 245 244 250 247 245 243 248 252 256 263 269 263 268
221 206 201 187 195 299 309 299 305 293 284 278 281 284 285 285 285 282 281 274 266 258 257 255 258 264 254 253 252 248 244 243 245 247 245 249 248 255 259 265 257 262 268
232 220 207 201 290 288 291 296 297 287 289 290 293 291 288 285 281 276 269 267 264 262 260 259 261 260 249 247 250 246 240 235 250 256 250 252 267 259 258 259 260 264 264
230 222 220 236 289 280 276 284 292 292 290 295 294 294 290 285 280 276 271 264 263 261 258 259 258 258 257 248 245 244 238 239 238 249 254 247 255 251 251 251 283 253 267
223 227 239 286 281 259 251 278 291 297 303 306 307 304 300 296 287 278 269 263 259 256 256 256 256 253 258 249 239 242 240 241 238 235 242 244 248 253 250 254 260 266 267
225 233 261 272 291 205 234 265 286 297 308 317 318 312 308 305 300 290 273 263 259 254 254 252 255 250 248 248 235 238 238 244 246 238 239 244 248 254 255 257 253 251 265
242 230 274 273 224 215 229 275 293 309 323 332 339 335 325 320 302 295 284 271 261 254 251 247 251 247 240 242 236 235 236 240 243 238 227 247 245 255 255 254 258 259 261
272 264 265 301 233 233 251 281 294 311 327 346 345 348 343 334 316 303 286 277 267 258 249 249 243 249 249 241 241 233 235 238 239 239 236 241 244 234 251 240 258 262 272
266 256 263 285 175 202 247 268 289 318 329 339 348 345 344 345 338 331 321 292 272 262 257 250 246 249 256 227 237 234 230 236 242 242 240 239 248 237 245 255 267 259 269
Height
3190 3192 3193 3195 3197 3199 3200 3201 3202 3203 3204 3205 3206 3207 3208 3209 3209 3210 3211 3211 3212 3213 3214 3214 3214 3215 3215 3217 3216 3217 3217 3217 3216 3216 3216 3217 3217 3217 3217 3217 3218 3217 3217
3192 3193 3195 3196 3198 3200 3201 3202 3204 3204 3206 3206 3207 3209 3209 3210 3210 3211 3212 3212 3214 3214 3214 3216 3216 3217 3217 3217 3218 3218 3218 3218 3218 3218 3217 3218 3218 3218 3218 3218 3219 3219 3219
3193 3194 3195 3196 3198 3200 3202 3204 3204 3205 3207 3208 3209 3210 3211 3211 3212 3213 3213 3213 3213 3215 3215 3217 3217 3218 3218 3218 3218 3219 3219 3219 3219 3219 3219 3219 3220 3219 3219 3220 3220 3221 3221
3193 3195 3196 3198 3199 3200 3203 3204 3205 3206 3208 3209 3211 3211 3212 3213 3214 3215 3214 3214 3214 3215 3216 3217 3218 3218 3218 3218 3219 3220 3220 3220 3220 3221 3221 3221 3221 3221 3221 3221 3222 3222 3222
3194 3197 3199 3200 3201 3202 3204 3205 3206 3207 3208 3210 3211 3212 3213 3214 3215 3216 3216 3215 3215 3217 3217 3217 3218 3218 3219 3219 3219 3220 3221 3221 3222 3222 3222 3223 3222 3222 3222 3223 3223 3223 3224
3195 3197 3199 3202 3202 3203 3204 3205 3207 3208 3209 3210 3212 3213 3214 3214 3215 3215 3216 3216 3217 3217 3218 3218 3218 3218 3218 3219 3220 3221 3222 3222 3222 3223 3224 3224 3224 3223 3223 3223 3224 3225 3225
3195 3198 3200 3201 3203 3204 3205 3207 3209 3210 3211 3212 3213 3214 3214 3215 3216 3216 3216 3217 3216 3217 3217 3218 3219 3219 3219 3219 3219 3221 3222 3223 3223 3223 3224 3225 3225 3224 3224 3224 3225 3225 3226
3196 3198 3200 3202 3204 3205 3206 3208 3210 3211 3212 3213 3213 3214 3214 3215 3216 3216 3217 3216 3216 3217 3216 3217 3218 3218 3219 3219 3219 3221 3222 3224 3224 3224 3225 3226 3226 3226 3226 3225 3225 3226 3226
3195 3198 3200 3202 3203 3205 3207 3208 3209 3211 3212 3213 3214 3215 3215 3215 3215 3216 3217 3217 3216 3217 3217 3218 3218 3218 3219 3219 3218 3220 3222 3224 3224 3225 3225 3226 3226 3226 3227 3226 3226 3226 3227
3195 3197 3200 3201 3204 3205 3207 3209 3210 3211 3212 3214 3214 3215 3216 3216 3215 3215 3216 3217 3216 3216 3217 3218 3218 3218 3219 3219 3219 3219 3223 3224 3225 3225 3226 3226 3227 3227 3227 3227 3227 3227 3227
3196 3198 3199 3201 3204 3205 3207 3209 3210 3211 3211 3212 3213 3214 3215 3215 3215 3215 3216 3217 3216 3216 3216 3217 3217 3217 3217 3219 3218 3220 3222 3224 3224 3225 3226 3227 3227 3228 3227 3227 3227 3227 3228
3196 3198 3200 3200 3203 3204 3205 3208 3209 3211 3211 3212 3212 3213 3214 3215 3215 3216 3216 3216 3216 3215 3215 3215 3216 3217 3217 3218 3217 3219 3221 3222 3224 3225 3226 3226 3226 3227 3227 3226 3227 3227 3228
3196 3198 3199 3200 3202 3204 3205 3207 3207 3209 3209 3211 3211 3211 3212 3213 3213 3214 3215 3215 3215 3216 3215 3215 3214 3215 3215 3216 3218 3217 3219 3220 3221 3224 3224 3225 3226 3226 3226 3226 3226 3227 3228
3197 3197 3198 3199 3200 3202 3203 3205 3206 3206 3207 3208 3208 3208 3209 3211 3212 3213 3213 3213 3213 3214 3214 3214 3213 3213 3214 3216 3216 3217 3217 3219 3220 3221 3221 3223 3225 3225 3225 3225 3225 3223 3226
3196 3197 3198 3198 3199 3199 3201 3201 3203 3204 3204 3205 3205 3205 3206 3207 3208 3208 3211 3210 3211 3212 3213 3213 3212 3212 3212 3213 3214 3215 3216 3217 3217 3217 3219 3221 3222 3223 3223 3223 3223 3223 3224
3196 3197 3197 3198 3198 3198 3199 3200 3200 3201 3202 3203 3203 3203 3204 3203 3202 3203 3199 3206 3205 3208 3210 3209 3209 3210 3210 3211 3212 3213 3213 3214 3215 3216 3217 3218 3220 3220 3220 3220 3217 3220 3220
3196 3196 3197 3197 3198 3198 3198 3198 3199 3199 3199 3199 3200 3199 3199 3200 3197 3196 3199 3197 3201 3203 3204 3205 3205 3205 3207 3208 3209 3210 3210 3212 3213 3213 3214 3215 3216 3217 3217 3214 3214 3216 3216
3194 3195 3196 3197 3197 3197 3197 3197 3198 3198 3198 3198 3197 3196 3196 3195 3196 3194 3194 3195 3197 3198 3201 3201 3200 3201 3204 3204 3206 3207 3208 3209 3210 3211 3212 3212 3213 3214 3213 3214 3214 3213 3213
3193 3193 3193 3194 3195 3195 3196 3196 3196 3196 3196 3195 3195 3193 3193 3191 3190 3189 3190 3191 3192 3193 3194 3195 3196 3197 3197 3200 3202 3203 3204 3206 3207 3208 3209 3210 3210 3211 3211 3210 3211 3211 3211
3191 3191 3191 3191 3193 3193 3194 3195 3196 3194 3193 3193 3192 3191 3189 3187 3186 3185 3186 3186 3187 3188 3188 3190 3190 3190 3193 3195 3197 3199 3201 3201 3202 3204 3206 3207 3207 3208 3208 3208 3209 3209 3209
3188 3188 3188 3188 3188 3190 3192 3193 3194 3194 3192 3191 3189 3187 3184 3182 3180 3179 3178 3179 3181 3182 3183 3183 3185 3186 3187 3190 3192 3194 3197 3198 3198 3202 3203 3203 3205 3204 3205 3205 3205 3205 3206
3184 3185 3185 3187 3184 3185 3189 3191 3192 3192 3190 3188 3184 3180 3177 3175 3172 3171 3170 3171 3172 3174 3176 3177 3178 3181 3182 3184 3187 3190 3192 3195 3196 3198 3199 3201 3201 3200 3201 3202 3203 3203 3204
3181 3183 3184 3183 3182 3183 3187 3189 3189 3189 3187 3184 3180 3176 3173 3169 3165 3163 3162 3163 3163 3165 3167 3169 3171 3174 3177 3179 3182 3185 3188 3190 3191 3193 3195 3197 3198 3197 3198 3199 3199 3200 3201
3180 3181 3183 3181 3182 3184 3187 3188 3188 3186 3184 3182 3178 3173 3169 3166 3162 3159 3157 3156 3157 3158 3160 3161 3164 3167 3170 3174 3177 3179 3182 3185 3187 3190 3192 3194 3195 3194 3195 3196 3196 3197 3197
3177 3178 3179 3179 3181 3183 3186 3186 3186 3184 3181 3178 3175 3172 3167 3163 3160 3156 3153 3151 3151 3152 3154 3156 3159 3162 3164 3168 3171 3174 3178 3181 3183 3186 3188 3189 3191 3190 3191 3192 3193 3193 3192
3176 3176 3177 3178 3178 3181 3183 3184 3184 3182 3180 3177 3173 3169 3165 3160 3156 3153 3150 3148 3148 3148 3149 3151 3153 3155 3156 3160 3165 3169 3173 3176 3179 3180 3182 3184 3185 3186 3187 3188 3188 3188 3188